Content
SEND FEEDBACK

Daily
Averages
Monthly
Summary
United States of America

UPI, GUAM


Home > North America > United States > Guam
Elevation: 53 feet     Latitude: 13 34N     Longitude: 144 55E

WEATHER
 
SELECT A DAY
Number of Records: 206,905;   Date Range: 1/1/95 - 4/18/14
 
SHARE

PRINT THIS DATA

[ ← Previous Day ]
WEATHER ALMANAC - JUNE 12, 2013
[ Next Day → ]
[ °C ]   °F
Weather ElementAverageHighLow
Temperature85.1 °F90 °F (3:54 pm)80.1 °F (2:54 am)
Dewpoint74.2 °F77 °F (2:04 am)71.1 °F (2:54 pm)
Humidity70.4 %84 % (2:04 am)55 % (2:54 pm)
Barometer29.82 in29.85 in (12:25 am)29.77 in (3:54 pm)
Wind Speed13 mph19.6 mph (8:54 am)
Wind Gust28.8 mph (10:54 am)
Weather ElementAverage
Visibility9.5 mi
Wind DirectionENE (76.1 °)

Weather ElementTotal
Precipitation0.63 in
Cooling Degree Days20.1 (Base 65)
Growing Degree Days35.1 (Base 50)
Averaged from 33 records on June 12, 2013
WEATHER CONDITIONS BREAKOUT
WIND DIRECTION BREAKOUT
WEATHER BY HOUR - JUNE 12, 2013
[ °C ]   °F
Local TimeTemperatureDewpointHumidityBarometerVisibilityWind DirectionWind SpeedGust SpeedPrecipitationEventsConditions
12:25 AM84.2 °F75.2 °F74 %29.85 in10.0 miEast (90°)10.4 mphScattered Clouds
12:54 AM84.9 °F75.0 °F72 %29.83 in10.0 miEast (80°)11.5 mphPartly Cloudy
1:46 AM84.2 °F75.2 °F74 %29.83 in10.0 miEast (90°)5.8 mphMostly Cloudy
1:54 AM84.2 °F75.2 °F74 %29.81 in10.0 miEast (80°)8.1 mphMostly Cloudy
2:04 AM82.4 °F77.0 °F84 %29.84 in7.0 miEast (80°)10.4 mph19.6 mph0.00 inRain-ThunderstormLight Thunderstorms and Rain
2:22 AM82.4 °F77.0 °F84 %29.84 in10.0 miEast (80°)8.1 mph0.00 inScattered Clouds
2:45 AM82.4 °F77.0 °F84 %29.84 in10.0 miEast (100°)11.5 mph17.3 mph0.00 inThunderstormThunderstorm
2:54 AM80.1 °F73.9 °F81 %29.82 in2.5 miEast (100°)11.5 mph0.03 inRain-ThunderstormHeavy Thunderstorms and Rain
3:05 AM80.6 °F75.2 °F84 %29.83 in4.0 miENE (70°)9.2 mph0.20 inRainLight Rain
3:21 AM80.6 °F75.2 °F84 %29.82 in10.0 miEast (90°)4.6 mph0.20 inScattered Clouds
3:54 AM82.9 °F77.0 °F82 %29.80 in10.0 miENE (60°)10.4 mph0.20 inScattered Clouds
4:54 AM82.9 °F77.0 °F82 %29.82 in10.0 miENE (60°)12.7 mphScattered Clouds
5:54 AM82.9 °F75.9 °F79 %29.83 in10.0 miENE (60°)13.8 mphScattered Clouds
6:54 AM84.0 °F75.9 °F76 %29.84 in10.0 miENE (60°)11.5 mphPartly Cloudy
7:54 AM86.0 °F73.9 °F67 %29.85 in10.0 miENE (60°)15.0 mphPartly Cloudy
8:54 AM88.0 °F73.0 °F61 %29.84 in10.0 miEast (80°)19.6 mph26.5 mphPartly Cloudy
9:54 AM89.1 °F73.0 °F59 %29.85 in10.0 miNE (50°)19.6 mphPartly Cloudy
10:54 AM89.1 °F72.0 °F57 %29.85 in10.0 miEast (80°)17.3 mph28.8 mphPartly Cloudy
11:54 AM88.0 °F72.0 °F59 %29.82 in10.0 miENE (70°)18.4 mph24.2 mphClear
12:54 PM87.1 °F73.0 °F63 %29.80 in10.0 miEast (80°)17.3 mphPartly Cloudy
1:54 PM88.0 °F73.0 °F61 %29.78 in10.0 miEast (80°)15.0 mph25.3 mphPartly Cloudy
2:54 PM89.1 °F71.1 °F55 %29.78 in10.0 miEast (80°)18.4 mph24.2 mphPartly Cloudy
3:54 PM90.0 °F73.0 °F57 %29.77 in10.0 miENE (60°)18.4 mph25.3 mphScattered Clouds
4:54 PM88.0 °F73.9 °F63 %29.78 in10.0 miEast (80°)18.4 mphScattered Clouds
5:10 PM87.8 °F73.4 °F62 %29.80 in10.0 miENE (60°)18.4 mphMostly Cloudy
5:30 PM87.8 °F73.4 °F62 %29.80 in10.0 miEast (80°)16.1 mphScattered Clouds
5:54 PM86.0 °F73.9 °F67 %29.78 in10.0 miENE (70°)13.8 mphScattered Clouds
6:54 PM84.9 °F73.0 °F67 %29.79 in10.0 miENE (70°)10.4 mphClear
7:54 PM84.9 °F73.0 °F67 %29.81 in10.0 miEast (80°)13.8 mphPartly Cloudy
8:54 PM84.0 °F73.9 °F72 %29.81 in10.0 miEast (80°)9.2 mphPartly Cloudy
9:54 PM84.0 °F73.0 °F69 %29.81 in10.0 miEast (90°)9.2 mphPartly Cloudy
10:54 PM84.0 °F73.0 °F69 %29.81 in10.0 miEast (80°)10.4 mphPartly Cloudy
11:54 PM84.0 °F73.9 °F72 %29.81 in10.0 miEast (80°)11.5 mphClear
Hourly data recorded from PGUM, located 9.21 miles away from Upi, Guam







STORIES FROM OUR PARTNERS